C/2005 EL173 ( LONEOS )

Japanese version
Home page
Total 6,336 html files since Dec. 4, 1995
Updated on September 17, 2008

---------------------------------------------------------------------

* Profile

Discovery Date March 8, 2005
Magnitude 19.3 mag
Discoverer Lowell Observatory Near-Earth Object Search

* Orbital Elements

The following orbital elements are taken from MPC 58538:

Epoch 2007 Mar. 1.0 TT = JDT 2454160.5
T 2007 Mar. 5.8714 TT                                   MPC
q   3.886332             (2000.0)            P               Q
z  -0.000868       Peri.  261.4935      +0.0263178      +0.9796702
 +/-0.000002       Node   344.7964      +0.9046950      -0.1079737
e   1.003375       Incl.  130.6797      -0.4252462      -0.1690797
From 185 observations 2005 Mar. 3-2006 Dec. 27, mean residual 0".6.

* Finding Charts

* Magnitudes Graph

        m1 = 7.0 + 5 log d + 10.0 log r

---------------------------------------------------------------------

The orbital elements are published at the MPC Ephemerides and Orbital Elements.
The charts are made with StellaNavigator Ver.2.0 for Windows (AstroArts / ASCII).
The magnitudes graphs are made with Comet for Windows.

---------------------------------------------------------------------

Copyright(C) 1995-2008 Seiichi Yoshida (comet@aerith.net). All rights reserved.